This is the latest recevied weather packets stored in our database for station/object JS2WAD-13. If no packets are shown the sender has not sent any weather packets the latest 10 day(s).
| Time | Temp. | Humidity | Pressure | Rain* | Wind** | Luminosity | Snow |
|---|---|---|---|---|---|---|---|
| 1777597598 | 16.11° C | 95% | 892.6 hPa | 0 mm | - | 44 W/m² | - |
| 1777597298 | 16.11° C | 95% | 892.8 hPa | 0 mm | - | 46 W/m² | - |
| 1777596998 | 16.11° C | 95% | 892.9 hPa | 0 mm | - | 44 W/m² | - |
| 1777596698 | 16.11° C | 95% | 893 hPa | 0 mm | - | 42 W/m² | - |
| 1777596398 | 16.11° C | 95% | 892.8 hPa | 0 mm | - | 32 W/m² | - |
| 1777596100 | 16.11° C | 95% | 893.1 hPa | 0 mm | - | 53 W/m² | - |
| 1777595798 | 16.11° C | 95% | 893.1 hPa | 0 mm | - | 44 W/m² | - |
| 1777595500 | 16.11° C | 95% | 893.2 hPa | 0 mm | - | 35 W/m² | - |
| 1777595198 | 16.11° C | 95% | 893.3 hPa | 0 mm | - | 26 W/m² | - |
| 1777594898 | 15.56° C | 95% | 893.4 hPa | 0 mm | - | 33 W/m² | - |
| 1777594598 | 15.56° C | 95% | 893.4 hPa | 0 mm | - | 44 W/m² | - |
| 1777594298 | 15.56° C | 95% | 893.6 hPa | 0 mm | - | 69 W/m² | - |
| 1777593998 | 15.56° C | 95% | 893.6 hPa | 0 mm | - | 130 W/m² | - |
| 1777593698 | 15.56° C | 95% | 893.8 hPa | 0 mm | - | 23 W/m² | - |
| 1777593398 | 15.56° C | 95% | 893.9 hPa | 0 mm | - | 35 W/m² | - |
| 1777593098 | 15.56° C | 95% | 893.9 hPa | 0 mm | - | 39 W/m² | - |
| 1777592798 | 15.56° C | 95% | 894.1 hPa | 0 mm | - | 19 W/m² | - |
| 1777592498 | 15.56° C | 95% | 894.1 hPa | 0 mm | - | 30 W/m² | - |
| 1777592198 | 15.56° C | 95% | 894.3 hPa | 0 mm | - | 33 W/m² | - |
| 1777591900 | 15.56° C | 95% | 894.4 hPa | 0 mm | - | 32 W/m² | - |
| 1777591598 | 15.56° C | 95% | 894.2 hPa | 0 mm | - | 37 W/m² | - |
| 1777591298 | 15.56° C | 95% | 893.9 hPa | 0 mm | - | 32 W/m² | - |
| 1777590998 | 15.56° C | 95% | 893.9 hPa | 0 mm | - | 28 W/m² | - |
| 1777590698 | 15.56° C | 95% | 894.5 hPa | 0 mm | - | 21 W/m² | - |
| 1777590398 | 15.56° C | 95% | 895.2 hPa | 0 mm | - | 18 W/m² | - |
* Rain latest hour (hover to see other rain measurements)
** Current wind speed in m/s (hover to see current wind gust speed)